KLM588 DNMM-EHAM

Flight info

Callsign KLM588
Flight time 6h 5m
Altitude 37000
Route BUDSI1Q BUDSI UB731 KIGRA UY333 MIGNI DCT EREBO/N0475F380 UA604 TMS/N0471F390 UZ111 OPRIC/N0468F380 UZ111 IPDAK UM508 KAMER/N0464F400 DCT NAFOQ DCT SURJU DCT PADKO DCT MOPEM DCT SIZZA DCT ENORI DCT MEDIL DCT FERDI/N0409F240 Y18 DENUT
Aircraft A332/H-SDE3GHIJ2J3J5M1RVWXY/LB2D1

Departure

Time 2026-05-08 12:51
Airport Murtala Muhammed International Airport (DNMM)

Arrival

Time 2026-05-08 18:57
Airport Amsterdam Airport Schiphol (EHAM)
Time Latitude Longitude Altitude Speed Heading
2026-05-08 12:30 6.57941 3.31947 91 ft 0 kts 67°
2026-05-08 12:41 6.57936 3.31936 93 ft 4 kts 76°
2026-05-08 12:41 6.57930 3.31912 88 ft 4 kts 62°
2026-05-08 12:42 6.57913 3.31893 89 ft 4 kts 34°
2026-05-08 12:42 6.57891 3.31884 87 ft 4 kts 344°
2026-05-08 12:42 6.57879 3.31890 89 ft 2 kts 311°
2026-05-08 12:43 6.57880 3.31890 89 ft 0 kts 311°
2026-05-08 12:46 6.57888 3.31880 88 ft 3 kts 313°
2026-05-08 12:46 6.57918 3.31852 84 ft 9 kts 325°
2026-05-08 12:46 6.57982 3.31821 86 ft 10 kts 335°
2026-05-08 12:46 6.58048 3.31791 86 ft 10 kts 336°
2026-05-08 12:47 6.58105 3.31757 83 ft 10 kts 307°
2026-05-08 12:47 6.58099 3.31675 69 ft 14 kts 247°
2026-05-08 12:47 6.58061 3.31586 68 ft 14 kts 248°
2026-05-08 12:47 6.58076 3.31543 66 ft 8 kts 320°
2026-05-08 12:48 6.58153 3.31526 71 ft 15 kts 356°
2026-05-08 12:48 6.58278 3.31522 84 ft 21 kts 359°
2026-05-08 12:48 6.58420 3.31521 85 ft 20 kts 360°
2026-05-08 12:48 6.58557 3.31521 85 ft 19 kts 359°
2026-05-08 12:49 6.58689 3.31518 85 ft 19 kts 360°
2026-05-08 12:49 6.58803 3.31484 86 ft 17 kts 302°
2026-05-08 12:49 6.58793 3.31376 83 ft 15 kts 233°
2026-05-08 12:49 6.58725 3.31316 85 ft 9 kts 199°
2026-05-08 12:50 6.58694 3.31314 85 ft 0 kts 180°
2026-05-08 12:50 6.58690 3.31314 86 ft 4 kts 180°
2026-05-08 12:50 6.58564 3.31315 84 ft 43 kts 179°
2026-05-08 12:51 6.58064 3.31323 77 ft 99 kts 179°
2026-05-08 12:51 6.56068 3.31348 203 ft 176 kts 178°
2026-05-08 12:51 6.54829 3.31368 792 ft 178 kts 178°
2026-05-08 12:52 6.53592 3.31385 1411 ft 178 kts 180°
2026-05-08 12:52 6.51456 3.30122 1831 ft 207 kts 246°
2026-05-08 12:52 6.51214 3.28646 2097 ft 224 kts 267°
2026-05-08 12:53 6.51275 3.27034 2468 ft 235 kts 270°
2026-05-08 12:53 6.51371 3.25381 3018 ft 237 kts 273°
2026-05-08 12:53 6.51806 3.23783 3577 ft 241 kts 298°
2026-05-08 12:53 6.53025 3.22630 4061 ft 249 kts 335°
2026-05-08 12:54 6.54786 3.22341 4266 ft 268 kts
2026-05-08 12:54 6.56694 3.22503 4666 ft 278 kts
2026-05-08 12:54 6.58600 3.22640 5290 ft 278 kts
2026-05-08 12:54 6.60528 3.22715 5916 ft 280 kts
2026-05-08 12:55 6.62481 3.22746 6530 ft 282 kts
2026-05-08 12:55 6.64445 3.22748 7149 ft 282 kts
2026-05-08 12:55 6.66417 3.22735 7788 ft 283 kts
2026-05-08 12:55 6.68387 3.22714 8449 ft 283 kts
2026-05-08 12:56 6.70360 3.22688 9111 ft 284 kts
2026-05-08 12:56 6.72339 3.22660 9777 ft 285 kts
2026-05-08 12:56 6.74334 3.22631 10249 ft 292 kts
2026-05-08 12:56 6.76422 3.22602 10485 ft 308 kts
2026-05-08 12:57 6.78590 3.22570 10704 ft 323 kts
2026-05-08 12:57 6.80888 3.22597 10886 ft 336 kts
2026-05-08 12:57 6.83264 3.22855 11093 ft 348 kts 11°
2026-05-08 12:57 6.85711 3.23194 11332 ft 359 kts 11°
2026-05-08 12:58 6.88212 3.23550 11689 ft 366 kts 11°
2026-05-08 12:58 6.90748 3.23910 12101 ft 370 kts 12°
2026-05-08 12:58 6.93315 3.24271 12537 ft 374 kts 12°
2026-05-08 12:58 6.95905 3.24635 12984 ft 377 kts 12°
2026-05-08 12:59 6.98477 3.24996 13429 ft 380 kts 12°
2026-05-08 12:59 7.01106 3.25365 13849 ft 383 kts 12°
2026-05-08 12:59 7.03764 3.25737 14234 ft 386 kts 11°
2026-05-08 12:59 7.06440 3.26111 14619 ft 389 kts 11°
2026-05-08 13:00 7.09125 3.26528 14992 ft 391 kts 13°
2026-05-08 13:00 7.11781 3.27015 15365 ft 394 kts 13°
2026-05-08 13:00 7.14482 3.27527 15727 ft 396 kts 13°
2026-05-08 13:00 7.17211 3.28045 16088 ft 400 kts 13°
2026-05-08 13:01 7.19953 3.28564 16444 ft 403 kts 13°
2026-05-08 13:01 7.22719 3.29087 16797 ft 405 kts 13°
2026-05-08 13:01 7.25501 3.29612 17148 ft 408 kts 12°
2026-05-08 13:01 7.28302 3.30141 17482 ft 411 kts 12°
2026-05-08 13:02 7.31129 3.30674 17825 ft 414 kts 12°
2026-05-08 13:02 7.33936 3.31204 18144 ft 416 kts 12°
2026-05-08 13:02 7.36795 3.31743 18438 ft 419 kts 12°
2026-05-08 13:02 7.39672 3.32286 18734 ft 421 kts 12°
2026-05-08 13:03 7.42555 3.32830 19046 ft 422 kts 12°
2026-05-08 13:03 7.45453 3.33377 19334 ft 424 kts 12°
2026-05-08 13:03 7.48364 3.33926 19623 ft 426 kts 12°
2026-05-08 13:03 7.51289 3.34479 19912 ft 428 kts 12°
2026-05-08 13:04 7.54221 3.35032 20184 ft 429 kts 12°
2026-05-08 13:04 7.57132 3.35582 20455 ft 431 kts 12°
2026-05-08 13:04 7.60087 3.36140 20736 ft 433 kts 12°
2026-05-08 13:04 7.63010 3.36693 21001 ft 434 kts 12°
2026-05-08 13:05 7.66008 3.37259 21273 ft 436 kts 12°
2026-05-08 13:05 7.68983 3.37821 21537 ft 438 kts 12°
2026-05-08 13:05 7.71985 3.38389 21801 ft 439 kts 12°
2026-05-08 13:05 7.74997 3.38958 22058 ft 441 kts 12°
2026-05-08 13:06 7.78023 3.39505 22321 ft 443 kts 10°
2026-05-08 13:06 7.81098 3.39873 22573 ft 446 kts
2026-05-08 13:06 7.84206 3.40127 22817 ft 448 kts
2026-05-08 13:06 7.87293 3.40323 23061 ft 450 kts
2026-05-08 13:07 7.90424 3.40503 23308 ft 452 kts
2026-05-08 13:07 7.93574 3.40685 23544 ft 453 kts
2026-05-08 13:07 7.96737 3.40876 23742 ft 455 kts
2026-05-08 13:07 7.99903 3.41077 23929 ft 456 kts
2026-05-08 13:08 8.03086 3.41287 24152 ft 458 kts
2026-05-08 13:08 8.06230 3.41499 24349 ft 459 kts
2026-05-08 13:08 8.09465 3.41719 24555 ft 461 kts
2026-05-08 13:08 8.12621 3.41935 24756 ft 462 kts
2026-05-08 13:09 8.15834 3.42154 24955 ft 463 kts
2026-05-08 13:09 8.19065 3.42375 25157 ft 465 kts
2026-05-08 13:09 8.22300 3.42595 25365 ft 466 kts
2026-05-08 13:09 8.25545 3.42816 25566 ft 468 kts
2026-05-08 13:10 8.28803 3.43038 25765 ft 469 kts
2026-05-08 13:10 8.32067 3.43258 25964 ft 470 kts
2026-05-08 13:10 8.35339 3.43475 26132 ft 473 kts
2026-05-08 13:10 8.38626 3.43690 26328 ft 474 kts
2026-05-08 13:11 8.41926 3.43905 26525 ft 476 kts
2026-05-08 13:11 8.45232 3.44120 26723 ft 477 kts
2026-05-08 13:11 8.48553 3.44336 26915 ft 479 kts
2026-05-08 13:11 8.51862 3.44552 27107 ft 480 kts
2026-05-08 13:12 8.55162 3.44769 27298 ft 481 kts
2026-05-08 13:12 8.58508 3.44994 27494 ft 483 kts
2026-05-08 13:12 8.61868 3.45222 27686 ft 484 kts
2026-05-08 13:12 8.65234 3.45452 27875 ft 486 kts
2026-05-08 13:13 8.68613 3.45683 28056 ft 487 kts
2026-05-08 13:13 8.72007 3.45915 28225 ft 489 kts
2026-05-08 13:13 8.75405 3.46147 28395 ft 491 kts
2026-05-08 13:13 8.78817 3.46380 28574 ft 492 kts
2026-05-08 13:14 8.82236 3.46613 28756 ft 493 kts
2026-05-08 13:14 8.85668 3.46847 28941 ft 494 kts
2026-05-08 13:14 8.89107 3.47081 29108 ft 496 kts
2026-05-08 13:14 8.92551 3.47316 29273 ft 497 kts
2026-05-08 13:15 8.95962 3.47548 29437 ft 498 kts
2026-05-08 13:15 8.99469 3.47787 29596 ft 499 kts
2026-05-08 13:15 9.02936 3.48024 29822 ft 499 kts
2026-05-08 13:15 9.06357 3.48257 30043 ft 499 kts
2026-05-08 13:16 9.09816 3.48493 30236 ft 498 kts
2026-05-08 13:16 9.13277 3.48728 30428 ft 498 kts
2026-05-08 13:16 9.16730 3.48964 30639 ft 497 kts
2026-05-08 13:16 9.20194 3.49199 30813 ft 497 kts
2026-05-08 13:17 9.23640 3.49434 31064 ft 496 kts
2026-05-08 13:17 9.27075 3.49668 31261 ft 495 kts
2026-05-08 13:17 9.30510 3.49903 31498 ft 493 kts
2026-05-08 13:17 9.33935 3.50136 31709 ft 493 kts
2026-05-08 13:18 9.37347 3.50369 31932 ft 491 kts
2026-05-08 13:18 9.40758 3.50602 32147 ft 491 kts
2026-05-08 13:18 9.44171 3.50835 32365 ft 490 kts
2026-05-08 13:18 9.47512 3.51208 32528 ft 490 kts
2026-05-08 13:19 9.50843 3.51976 32709 ft 490 kts 13°
2026-05-08 13:19 9.54143 3.52871 32919 ft 490 kts 14°
2026-05-08 13:19 9.57415 3.53819 33115 ft 489 kts 14°
2026-05-08 13:19 9.60681 3.54796 33277 ft 489 kts 14°
2026-05-08 13:20 9.63940 3.55784 33481 ft 489 kts 14°
2026-05-08 13:20 9.67203 3.56775 33648 ft 489 kts 14°
2026-05-08 13:20 9.70455 3.57759 33825 ft 488 kts 14°
2026-05-08 13:20 9.73713 3.58740 33998 ft 488 kts 14°
2026-05-08 13:21 9.76966 3.59717 34160 ft 487 kts 14°
2026-05-08 13:21 9.80219 3.60692 34331 ft 487 kts 14°
2026-05-08 13:21 9.83464 3.61663 34495 ft 486 kts 14°
2026-05-08 13:21 9.86703 3.62633 34667 ft 485 kts 14°
2026-05-08 13:22 9.89894 3.63588 34832 ft 484 kts 14°
2026-05-08 13:22 9.93123 3.64554 34994 ft 484 kts 14°
2026-05-08 13:22 9.96349 3.65520 35143 ft 483 kts 14°
2026-05-08 13:22 9.99569 3.66484 35301 ft 482 kts 14°
2026-05-08 13:23 10.02791 3.67449 35457 ft 482 kts 14°
2026-05-08 13:23 10.06004 3.68412 35607 ft 481 kts 14°
2026-05-08 13:23 10.09212 3.69374 35752 ft 481 kts 14°
2026-05-08 13:23 10.12418 3.70336 35892 ft 480 kts 15°
2026-05-08 13:24 10.15624 3.71306 36048 ft 480 kts 15°
2026-05-08 13:24 10.18816 3.72273 36192 ft 479 kts 15°
2026-05-08 13:24 10.22015 3.73240 36384 ft 477 kts 15°
2026-05-08 13:24 10.25195 3.74200 36540 ft 476 kts 15°
2026-05-08 13:25 10.28373 3.75158 36682 ft 476 kts 15°
2026-05-08 13:25 10.31545 3.76111 36803 ft 476 kts 15°
2026-05-08 13:25 10.37905 3.78020 36918 ft 476 kts 15°
2026-05-08 13:26 10.44263 3.79929 36902 ft 475 kts 15°
2026-05-08 13:26 10.50566 3.81822 36906 ft 475 kts 15°
2026-05-08 13:27 10.56899 3.83725 36903 ft 474 kts 14°
2026-05-08 13:27 10.63223 3.85626 36909 ft 474 kts 15°
2026-05-08 13:28 10.69545 3.87527 36903 ft 474 kts 14°
2026-05-08 13:28 10.75868 3.89429 36898 ft 474 kts 14°
2026-05-08 13:29 10.82198 3.91334 36902 ft 474 kts 14°
2026-05-08 13:29 10.88517 3.93236 36901 ft 474 kts 14°
2026-05-08 13:30 10.93769 3.94819 36905 ft 474 kts 15°
2026-05-08 13:30 11.00085 3.96722 36892 ft 473 kts 15°
2026-05-08 13:31 11.06403 3.98626 36893 ft 473 kts 14°
2026-05-08 13:31 11.12718 4.00531 36895 ft 473 kts 15°
2026-05-08 13:32 11.19038 4.02438 36903 ft 473 kts 14°
2026-05-08 13:32 11.25363 4.04347 36897 ft 474 kts 14°
2026-05-08 13:33 11.31693 4.06259 36884 ft 476 kts 14°
2026-05-08 13:33 11.38061 4.08183 36888 ft 479 kts 14°
2026-05-08 13:34 11.44450 4.10114 36875 ft 479 kts 14°
2026-05-08 13:34 11.50838 4.12047 36884 ft 479 kts 14°
2026-05-08 13:35 11.57182 4.13967 36893 ft 479 kts 14°
2026-05-08 13:35 11.63573 4.15901 36877 ft 479 kts 14°
2026-05-08 13:36 11.69971 4.17839 36880 ft 480 kts 15°
2026-05-08 13:36 11.76380 4.19781 36868 ft 481 kts 14°
2026-05-08 13:37 11.82805 4.21730 36869 ft 482 kts 14°
2026-05-08 13:37 11.89233 4.23679 36866 ft 482 kts 14°
2026-05-08 13:38 11.95663 4.25629 36863 ft 482 kts 14°
2026-05-08 13:38 12.02053 4.27570 36859 ft 482 kts 13°
2026-05-08 13:39 12.08468 4.29519 36863 ft 480 kts 14°
2026-05-08 13:39 12.14871 4.31464 36859 ft 480 kts 13°
2026-05-08 13:40 12.21267 4.33408 36854 ft 479 kts 13°
2026-05-08 13:40 12.27669 4.35356 36854 ft 479 kts 14°
2026-05-08 13:41 12.34069 4.37303 36843 ft 479 kts 13°
2026-05-08 13:41 12.40467 4.39251 36849 ft 480 kts 14°
2026-05-08 13:42 12.46861 4.41199 36839 ft 480 kts 14°
2026-05-08 13:42 12.53257 4.43149 36843 ft 480 kts 14°
2026-05-08 13:43 12.59614 4.45088 36836 ft 480 kts 14°
2026-05-08 13:43 12.66012 4.47040 36832 ft 480 kts 14°
2026-05-08 13:44 12.72414 4.48994 36832 ft 480 kts 14°
2026-05-08 13:44 12.78822 4.50951 36835 ft 482 kts 14°
2026-05-08 13:45 12.85265 4.52920 36835 ft 483 kts 14°
2026-05-08 13:45 12.91706 4.54890 36834 ft 483 kts 14°
2026-05-08 13:46 12.98145 4.56860 36835 ft 483 kts 14°
2026-05-08 13:46 13.04594 4.58818 36836 ft 482 kts 13°
2026-05-08 13:47 13.11105 4.60422 36836 ft 481 kts
2026-05-08 13:47 13.17667 4.61845 36829 ft 483 kts
2026-05-08 13:48 13.24248 4.63283 36828 ft 483 kts
2026-05-08 13:48 13.30820 4.64755 36829 ft 484 kts
2026-05-08 13:49 13.37353 4.66235 36823 ft 484 kts
2026-05-08 13:49 13.43937 4.67731 36824 ft 484 kts
2026-05-08 13:50 13.50505 4.69223 36821 ft 483 kts
2026-05-08 13:50 13.57055 4.70710 36819 ft 482 kts
2026-05-08 13:51 13.63606 4.72198 36814 ft 482 kts
2026-05-08 13:51 13.70160 4.73692 36818 ft 482 kts
2026-05-08 13:52 13.76715 4.75186 36814 ft 482 kts
2026-05-08 13:52 13.83269 4.76673 36818 ft 482 kts
2026-05-08 13:53 13.89823 4.78160 36813 ft 483 kts
2026-05-08 13:53 13.96343 4.79641 36812 ft 483 kts
2026-05-08 13:54 14.02888 4.81127 36816 ft 483 kts
2026-05-08 13:54 14.09454 4.82619 36816 ft 483 kts
2026-05-08 13:55 14.15999 4.84107 36815 ft 483 kts
2026-05-08 13:56 14.25799 4.86339 36812 ft 481 kts
2026-05-08 13:56 14.32327 4.87826 36813 ft 481 kts
2026-05-08 13:57 14.38829 4.89308 36815 ft 481 kts
2026-05-08 13:57 14.45344 4.90794 36816 ft 481 kts
2026-05-08 13:58 14.51858 4.92304 36814 ft 476 kts
2026-05-08 13:58 14.58366 4.93796 36816 ft 481 kts
2026-05-08 13:59 14.64920 4.95275 36820 ft 482 kts
2026-05-08 13:59 14.71481 4.96765 36821 ft 483 kts
2026-05-08 14:00 14.78053 4.98266 36822 ft 484 kts
2026-05-08 14:00 14.84626 4.99771 36823 ft 484 kts
2026-05-08 14:01 14.91156 5.01268 36815 ft 483 kts
2026-05-08 14:01 14.97765 5.02783 36812 ft 483 kts
2026-05-08 14:02 15.04282 5.04277 36818 ft 483 kts
2026-05-08 14:02 15.10839 5.05782 36818 ft 483 kts
2026-05-08 14:03 15.17399 5.07288 36820 ft 483 kts
2026-05-08 14:03 15.23956 5.08795 36822 ft 483 kts
2026-05-08 14:04 15.30510 5.10302 36820 ft 482 kts
2026-05-08 14:04 15.37054 5.11808 36820 ft 482 kts
2026-05-08 14:05 15.43603 5.13316 36821 ft 482 kts
2026-05-08 14:05 15.50150 5.14825 36823 ft 482 kts
2026-05-08 14:06 15.56653 5.16324 36826 ft 482 kts
2026-05-08 14:06 15.63194 5.17833 36826 ft 481 kts
2026-05-08 14:07 15.69718 5.19340 36828 ft 480 kts
2026-05-08 14:07 15.76239 5.20846 36828 ft 480 kts
2026-05-08 14:08 15.82762 5.22354 36832 ft 480 kts
2026-05-08 14:08 15.89289 5.23864 36832 ft 480 kts
2026-05-08 14:09 15.95813 5.25374 36830 ft 480 kts
2026-05-08 14:09 16.02334 5.26885 36826 ft 480 kts
2026-05-08 14:10 16.08811 5.28386 36826 ft 480 kts
2026-05-08 14:10 16.15334 5.29899 36824 ft 480 kts
2026-05-08 14:11 16.21865 5.31415 36823 ft 480 kts
2026-05-08 14:11 16.28381 5.32928 36829 ft 480 kts
2026-05-08 14:12 16.34902 5.34444 36826 ft 479 kts
2026-05-08 14:12 16.41411 5.35958 36828 ft 479 kts
2026-05-08 14:13 16.47879 5.37463 36820 ft 479 kts
2026-05-08 14:13 16.54396 5.38980 36826 ft 479 kts
2026-05-08 14:14 16.60914 5.40499 36827 ft 479 kts
2026-05-08 14:14 16.67421 5.42017 36828 ft 479 kts
2026-05-08 14:15 16.73937 5.43538 36825 ft 480 kts
2026-05-08 14:15 16.80428 5.45054 36824 ft 480 kts
2026-05-08 14:16 16.86959 5.46580 36826 ft 480 kts
2026-05-08 14:16 16.93435 5.48095 36824 ft 480 kts
2026-05-08 14:17 16.99963 5.49623 36826 ft 480 kts
2026-05-08 14:17 17.05390 5.50893 36824 ft 481 kts
2026-05-08 14:18 17.11934 5.52427 36824 ft 481 kts
2026-05-08 14:18 17.18474 5.53961 36823 ft 482 kts
2026-05-08 14:19 17.25020 5.55497 36826 ft 482 kts
2026-05-08 14:19 17.31568 5.57035 36818 ft 482 kts
2026-05-08 14:20 17.38073 5.58564 36816 ft 482 kts
2026-05-08 14:20 17.44627 5.60105 36817 ft 482 kts
2026-05-08 14:21 17.51182 5.61648 36815 ft 482 kts
2026-05-08 14:21 17.57735 5.63192 36820 ft 482 kts
2026-05-08 14:22 17.64248 5.64727 36821 ft 482 kts
2026-05-08 14:22 17.70791 5.66271 36818 ft 482 kts
2026-05-08 14:23 17.77338 5.67816 36818 ft 482 kts
2026-05-08 14:23 17.83833 5.69655 36817 ft 487 kts 13°
2026-05-08 14:24 17.90224 5.72048 36819 ft 488 kts 14°
2026-05-08 14:24 17.96592 5.74546 36808 ft 488 kts 14°
2026-05-08 14:25 18.02917 5.77044 36807 ft 488 kts 14°
2026-05-08 14:25 18.09289 5.79550 36811 ft 488 kts 14°
2026-05-08 14:26 18.15654 5.82048 36808 ft 488 kts 14°
2026-05-08 14:26 18.22026 5.84548 36812 ft 488 kts 14°
2026-05-08 14:27 18.28367 5.87039 36811 ft 488 kts 14°
2026-05-08 14:27 18.34746 5.89546 36806 ft 488 kts 14°
2026-05-08 14:28 18.41117 5.92053 36795 ft 488 kts 14°
2026-05-08 14:28 18.47487 5.94561 36812 ft 488 kts 14°
2026-05-08 14:29 18.53854 5.97070 36805 ft 488 kts 14°
2026-05-08 14:29 18.60183 5.99566 36806 ft 488 kts 14°
2026-05-08 14:30 18.66560 6.02083 36813 ft 488 kts 14°
2026-05-08 14:30 18.72925 6.04597 36805 ft 488 kts 14°
2026-05-08 14:31 18.79257 6.07101 36810 ft 488 kts 14°
2026-05-08 14:31 18.85628 6.09621 36811 ft 488 kts 14°
2026-05-08 14:32 18.95167 6.13399 36802 ft 487 kts 14°
2026-05-08 14:32 19.01521 6.15918 36804 ft 487 kts 14°
2026-05-08 14:33 19.07836 6.18424 36808 ft 487 kts 14°
2026-05-08 14:33 19.14196 6.20949 36806 ft 487 kts 14°
2026-05-08 14:34 19.20557 6.23476 36806 ft 487 kts 14°
2026-05-08 14:34 19.26914 6.26005 36810 ft 488 kts 14°
2026-05-08 14:35 19.33232 6.28520 36814 ft 487 kts 14°
2026-05-08 14:35 19.39584 6.31051 36814 ft 488 kts 14°
2026-05-08 14:36 19.45950 6.33589 36810 ft 488 kts 14°
2026-05-08 14:36 19.52309 6.36127 36810 ft 488 kts 14°
2026-05-08 14:37 19.58677 6.38671 36807 ft 488 kts 14°
2026-05-08 14:37 19.65039 6.41214 36809 ft 488 kts 14°
2026-05-08 14:38 19.71382 6.43752 36813 ft 489 kts 14°
2026-05-08 14:38 19.77759 6.46305 36811 ft 490 kts 14°
2026-05-08 14:39 19.84147 6.48865 36810 ft 489 kts 14°
2026-05-08 14:39 19.90515 6.51420 36811 ft 489 kts 14°
2026-05-08 14:40 19.96850 6.53964 36811 ft 489 kts 14°
2026-05-08 14:40 20.03221 6.56523 36820 ft 489 kts 14°
2026-05-08 14:41 20.09716 6.58279 36818 ft 474 kts 358°
2026-05-08 14:41 20.16133 6.57827 36814 ft 454 kts 338°
2026-05-08 14:42 20.22039 6.55698 36817 ft 449 kts 332°
2026-05-08 14:42 20.27855 6.53215 36816 ft 449 kts 331°
2026-05-08 14:43 20.33653 6.50703 36811 ft 450 kts 331°
2026-05-08 14:43 20.39431 6.48237 36813 ft 450 kts 331°
2026-05-08 14:44 20.45255 6.45775 36824 ft 449 kts 331°
2026-05-08 14:44 20.51070 6.43321 36823 ft 449 kts 331°
2026-05-08 14:45 20.56888 6.40863 36819 ft 449 kts 331°
2026-05-08 14:45 20.62661 6.38420 36819 ft 449 kts 331°
2026-05-08 14:46 20.68478 6.35956 36823 ft 449 kts 331°
2026-05-08 14:46 20.74280 6.33497 36818 ft 448 kts 331°
2026-05-08 14:47 20.80068 6.31042 36825 ft 447 kts 331°
2026-05-08 14:47 20.85862 6.28581 36823 ft 447 kts 331°
2026-05-08 14:48 20.91623 6.26133 36826 ft 447 kts 330°
2026-05-08 14:48 20.97417 6.23669 36830 ft 447 kts 330°
2026-05-08 14:49 21.03178 6.21216 36850 ft 447 kts 330°
2026-05-08 14:49 21.08964 6.18751 36834 ft 447 kts 330°
2026-05-08 14:50 21.14752 6.16284 36834 ft 447 kts 330°
2026-05-08 14:50 21.20544 6.13812 36840 ft 447 kts 330°
2026-05-08 14:51 21.26302 6.11353 36837 ft 447 kts 330°
2026-05-08 14:51 21.32087 6.08880 36839 ft 447 kts 330°
2026-05-08 14:52 21.40762 6.05167 36842 ft 448 kts 330°
2026-05-08 14:53 21.46559 6.02684 36848 ft 448 kts 330°
2026-05-08 14:53 21.52318 6.00215 36848 ft 448 kts 330°
2026-05-08 14:54 21.58120 5.97726 36848 ft 448 kts 330°
2026-05-08 14:54 21.63917 5.95236 36848 ft 448 kts 330°
2026-05-08 14:55 21.69707 5.92747 36870 ft 448 kts 330°
2026-05-08 14:55 21.75462 5.90271 36859 ft 448 kts 330°
2026-05-08 14:56 21.81253 5.87778 36859 ft 448 kts 330°
2026-05-08 14:56 21.87046 5.85281 36865 ft 448 kts 330°
2026-05-08 14:57 21.92836 5.82784 36864 ft 448 kts 330°
2026-05-08 14:57 21.98627 5.80284 36868 ft 448 kts 330°
2026-05-08 14:58 22.04417 5.77782 36875 ft 448 kts 329°
2026-05-08 14:58 22.10170 5.75294 36876 ft 448 kts 329°
2026-05-08 14:59 22.15962 5.72787 36877 ft 448 kts 329°
2026-05-08 14:59 22.24650 5.69022 36880 ft 448 kts 329°
2026-05-08 15:00 22.29464 5.66934 36884 ft 448 kts 329°
2026-05-08 15:00 22.36187 5.64016 36919 ft 448 kts 329°
2026-05-08 15:01 22.41028 5.61912 36890 ft 447 kts 329°
2026-05-08 15:01 22.46763 5.59417 36890 ft 446 kts 329°
2026-05-08 15:02 22.52522 5.56909 36953 ft 446 kts 329°
2026-05-08 15:02 22.58281 5.54400 37012 ft 446 kts 329°
2026-05-08 15:03 22.64042 5.51887 37076 ft 446 kts 329°
2026-05-08 15:03 22.69801 5.49373 37153 ft 446 kts 328°
2026-05-08 15:04 22.75550 5.46864 37151 ft 445 kts 329°
2026-05-08 15:04 22.81630 5.45196 37158 ft 465 kts 345°
2026-05-08 15:05 22.84912 5.45114 37162 ft 476 kts 353°
2026-05-08 15:05 22.88238 5.45337 37158 ft 479 kts 355°
2026-05-08 15:05 22.94906 5.46072 37121 ft 482 kts 356°
2026-05-08 15:06 23.01540 5.46896 37098 ft 482 kts 356°
2026-05-08 15:06 23.08229 5.47697 37035 ft 483 kts 356°
2026-05-08 15:07 23.14915 5.48465 37011 ft 483 kts 356°
2026-05-08 15:07 23.21610 5.49226 37001 ft 483 kts 356°
2026-05-08 15:08 23.28255 5.49982 37012 ft 483 kts 356°
2026-05-08 15:08 23.34951 5.50744 37017 ft 483 kts 356°
2026-05-08 15:09 23.41640 5.51512 37008 ft 483 kts 356°
2026-05-08 15:09 23.48328 5.52275 37005 ft 483 kts 356°
2026-05-08 15:10 23.55020 5.53042 37001 ft 483 kts 356°
2026-05-08 15:10 23.61667 5.53803 37000 ft 483 kts 356°
2026-05-08 15:11 23.68364 5.54572 36993 ft 484 kts 355°
2026-05-08 15:11 23.75086 5.55343 36990 ft 486 kts 355°
2026-05-08 15:12 23.81822 5.56118 36988 ft 486 kts 355°
2026-05-08 15:12 23.88516 5.56891 36988 ft 486 kts 355°
2026-05-08 15:13 23.95259 5.57669 36989 ft 486 kts 355°
2026-05-08 15:13 24.02001 5.58446 36991 ft 489 kts 355°
2026-05-08 15:14 24.08779 5.59227 36998 ft 490 kts 355°
2026-05-08 15:14 24.15572 5.60014 36996 ft 491 kts 355°
2026-05-08 15:15 24.22366 5.60803 37003 ft 491 kts 355°
2026-05-08 15:15 24.29159 5.61589 37031 ft 490 kts 355°
2026-05-08 15:16 24.35912 5.62370 37007 ft 492 kts 355°
2026-05-08 15:16 24.42723 5.63157 37009 ft 491 kts 355°
2026-05-08 15:17 24.49556 5.63948 37005 ft 494 kts 355°
2026-05-08 15:17 24.56390 5.64751 37004 ft 493 kts 354°
2026-05-08 15:18 24.63173 5.65545 37012 ft 493 kts 355°
2026-05-08 15:18 24.70002 5.66339 37005 ft 493 kts 355°
2026-05-08 15:19 24.76818 5.67136 37002 ft 492 kts 355°
2026-05-08 15:19 24.83630 5.67931 37008 ft 493 kts 355°
2026-05-08 15:20 24.90460 5.68730 37026 ft 493 kts 355°
2026-05-08 15:20 24.97247 5.69525 37004 ft 494 kts 355°
2026-05-08 15:21 25.04100 5.70329 37005 ft 494 kts 355°
2026-05-08 15:21 25.10958 5.71134 36977 ft 494 kts 355°
2026-05-08 15:22 25.17791 5.71938 37000 ft 493 kts 355°
2026-05-08 15:22 25.24615 5.72742 37006 ft 493 kts 355°
2026-05-08 15:23 25.31418 5.73540 37000 ft 495 kts 355°
2026-05-08 15:23 25.38284 5.74351 37005 ft 495 kts 355°
2026-05-08 15:24 25.45145 5.75164 36995 ft 495 kts 355°
2026-05-08 15:24 25.52006 5.75976 37005 ft 496 kts 355°
2026-05-08 15:25 25.58848 5.76784 36998 ft 497 kts 355°
2026-05-08 15:25 25.65752 5.77599 37001 ft 499 kts 355°
2026-05-08 15:26 25.72671 5.78417 36999 ft 499 kts 355°
2026-05-08 15:26 25.79523 5.79234 36999 ft 498 kts 355°
2026-05-08 15:27 25.86423 5.80056 37009 ft 499 kts 355°
2026-05-08 15:27 25.93341 5.80878 36996 ft 500 kts 355°
2026-05-08 15:28 26.00272 5.81704 36994 ft 500 kts 355°
2026-05-08 15:28 26.07154 5.82525 36993 ft 500 kts 355°
2026-05-08 15:29 26.14085 5.83353 37011 ft 500 kts 355°
2026-05-08 15:29 26.21024 5.84183 36993 ft 502 kts 355°
2026-05-08 15:30 26.27988 5.85016 36986 ft 503 kts 355°
2026-05-08 15:30 26.34918 5.85847 36991 ft 503 kts 355°
2026-05-08 15:31 26.41876 5.86685 36987 ft 503 kts 355°
2026-05-08 15:31 26.48848 5.87522 36994 ft 504 kts 355°
2026-05-08 15:32 26.55858 5.88364 36985 ft 506 kts 355°
2026-05-08 15:32 26.62816 5.89201 36967 ft 506 kts 355°
2026-05-08 15:33 26.69824 5.90047 36976 ft 506 kts 355°
2026-05-08 15:33 26.76837 5.90894 36966 ft 506 kts 355°
2026-05-08 15:34 26.83862 5.91743 36964 ft 507 kts 355°
2026-05-08 15:34 26.90830 5.92587 36951 ft 506 kts 355°
2026-05-08 15:35 26.97850 5.93438 36957 ft 506 kts 355°
2026-05-08 15:35 27.04867 5.94291 36962 ft 506 kts 355°
2026-05-08 15:36 27.10703 5.94999 36943 ft 507 kts 355°
2026-05-08 15:36 27.18868 5.95990 36939 ft 507 kts 355°
2026-05-08 15:37 27.25899 5.96847 36938 ft 507 kts 355°
2026-05-08 15:37 27.32928 5.97704 36936 ft 507 kts 355°
2026-05-08 15:38 27.39920 5.98558 36935 ft 509 kts 355°
2026-05-08 15:38 27.46962 5.99418 36932 ft 510 kts 355°
2026-05-08 15:39 27.54016 6.00282 36930 ft 510 kts 355°
2026-05-08 15:39 27.61072 6.01147 36927 ft 510 kts 355°
2026-05-08 15:40 27.68124 6.02013 36932 ft 510 kts 355°
2026-05-08 15:40 27.75193 6.02881 36929 ft 510 kts 355°
2026-05-08 15:41 27.82203 6.03744 36923 ft 509 kts 355°
2026-05-08 15:41 27.89254 6.04613 36927 ft 510 kts 355°
2026-05-08 15:42 27.96308 6.05483 36932 ft 510 kts 355°
2026-05-08 15:42 28.03379 6.06356 36922 ft 510 kts 355°
2026-05-08 15:43 28.10400 6.07225 36926 ft 510 kts 355°
2026-05-08 15:43 28.17470 6.08101 36926 ft 510 kts 355°
2026-05-08 15:44 28.24522 6.08976 36938 ft 510 kts 356°
2026-05-08 15:44 28.31578 6.09853 36922 ft 509 kts 356°
2026-05-08 15:45 28.38632 6.10729 36919 ft 509 kts 356°
2026-05-08 15:45 28.45683 6.11607 36913 ft 509 kts 356°
2026-05-08 15:46 28.52697 6.12481 36950 ft 509 kts 356°
2026-05-08 15:46 28.58608 6.13220 36916 ft 509 kts 356°
2026-05-08 15:47 28.65612 6.14096 36912 ft 509 kts 356°
2026-05-08 15:47 28.72665 6.14980 36914 ft 509 kts 356°
2026-05-08 15:48 28.83239 6.16305 36924 ft 509 kts 356°
2026-05-08 15:49 28.90300 6.17192 36909 ft 510 kts 356°
2026-05-08 15:49 28.97314 6.18075 36909 ft 510 kts 356°
2026-05-08 15:50 29.04381 6.18966 36909 ft 510 kts 356°
2026-05-08 15:50 29.11444 6.19857 36939 ft 510 kts 356°
2026-05-08 15:51 29.18510 6.20749 36898 ft 511 kts 356°
2026-05-08 15:51 29.25584 6.21642 36894 ft 511 kts 356°
2026-05-08 15:52 29.32610 6.22533 36898 ft 511 kts 356°
2026-05-08 15:52 29.39671 6.23430 36929 ft 511 kts 356°
2026-05-08 15:53 29.46740 6.24330 36899 ft 511 kts 356°
2026-05-08 15:53 29.53814 6.25229 36898 ft 511 kts 356°
2026-05-08 15:54 29.60890 6.26131 36894 ft 511 kts 356°
2026-05-08 15:54 29.67969 6.27034 36919 ft 511 kts 356°
2026-05-08 15:55 29.75000 6.27932 36888 ft 512 kts 356°
2026-05-08 15:55 29.85639 6.29294 36883 ft 512 kts 356°
2026-05-08 15:56 29.92723 6.30202 36881 ft 512 kts 356°
2026-05-08 15:56 29.99769 6.31107 36889 ft 512 kts 357°
2026-05-08 15:57 30.06863 6.32018 36881 ft 512 kts 357°
2026-05-08 15:57 30.13918 6.32927 36878 ft 512 kts 357°
2026-05-08 15:58 30.21016 6.33843 36879 ft 512 kts 357°
2026-05-08 15:58 30.28099 6.34758 36876 ft 512 kts 357°
2026-05-08 15:59 30.35189 6.35676 36873 ft 512 kts 357°
2026-05-08 15:59 30.42224 6.36587 36870 ft 512 kts 357°
2026-05-08 16:00 30.49313 6.37506 36870 ft 511 kts 357°
2026-05-08 16:00 30.56396 6.38426 36870 ft 512 kts 357°
2026-05-08 16:01 30.63479 6.39347 36864 ft 512 kts 358°
2026-05-08 16:01 30.70573 6.40272 36864 ft 512 kts 358°
2026-05-08 16:02 30.77603 6.41190 36865 ft 512 kts 358°
2026-05-08 16:02 30.84684 6.42116 36861 ft 510 kts 358°
2026-05-08 16:03 30.91650 6.42272 36860 ft 493 kts 346°
2026-05-08 16:03 30.98454 6.41406 36858 ft 490 kts 343°
2026-05-08 16:04 31.05173 6.40358 36857 ft 490 kts 342°
2026-05-08 16:04 31.11939 6.39280 36854 ft 490 kts 343°
2026-05-08 16:05 31.18692 6.38226 36855 ft 488 kts 343°
2026-05-08 16:05 31.25439 6.37183 36853 ft 488 kts 343°
2026-05-08 16:06 31.32183 6.36142 36850 ft 488 kts 343°
2026-05-08 16:06 31.38868 6.35109 36856 ft 488 kts 343°
2026-05-08 16:07 31.45598 6.34067 36849 ft 487 kts 343°
2026-05-08 16:07 31.52323 6.33024 36846 ft 487 kts 343°
2026-05-08 16:08 31.59053 6.31977 36843 ft 487 kts 343°
2026-05-08 16:08 31.65769 6.30932 36873 ft 486 kts 344°
2026-05-08 16:09 31.71345 6.30064 36853 ft 485 kts 344°
2026-05-08 16:09 31.79126 6.28851 36852 ft 485 kts 344°
2026-05-08 16:10 31.85828 6.27803 36849 ft 485 kts 344°
2026-05-08 16:10 31.92516 6.26756 36870 ft 485 kts 344°
2026-05-08 16:11 31.99200 6.25710 36846 ft 483 kts 344°
2026-05-08 16:11 32.05824 6.24670 36846 ft 482 kts 344°
2026-05-08 16:12 32.12490 6.23621 36844 ft 483 kts 344°
2026-05-08 16:12 32.19155 6.22572 36842 ft 483 kts 344°
2026-05-08 16:13 32.25808 6.21524 36840 ft 481 kts 345°
2026-05-08 16:13 32.32397 6.20485 36840 ft 480 kts 345°
2026-05-08 16:14 32.39020 6.19438 36843 ft 480 kts 345°
2026-05-08 16:14 32.45643 6.18388 36842 ft 480 kts 345°
2026-05-08 16:15 32.52264 6.17338 36849 ft 479 kts 345°
2026-05-08 16:15 32.58819 6.16297 36850 ft 478 kts 345°
2026-05-08 16:16 32.65425 6.15246 36850 ft 478 kts 345°
2026-05-08 16:16 32.72020 6.14196 36857 ft 478 kts 345°
2026-05-08 16:17 32.77509 6.13320 36850 ft 477 kts 345°
2026-05-08 16:17 32.85136 6.12104 36859 ft 475 kts 345°
2026-05-08 16:18 32.91691 6.11054 36862 ft 475 kts 345°
2026-05-08 16:18 32.98236 6.10005 36867 ft 475 kts 345°
2026-05-08 16:19 33.04784 6.08953 36888 ft 473 kts 345°
2026-05-08 16:19 33.11228 6.07806 36883 ft 468 kts 344°
2026-05-08 16:20 33.17646 6.06569 36883 ft 467 kts 344°
2026-05-08 16:20 33.24066 6.05325 36884 ft 467 kts 344°
2026-05-08 16:21 33.30483 6.04093 36883 ft 467 kts 344°
2026-05-08 16:21 33.36901 6.02867 36881 ft 467 kts 344°
2026-05-08 16:22 33.43280 6.01649 36884 ft 467 kts 344°
2026-05-08 16:22 33.49717 6.00418 36883 ft 467 kts 344°
2026-05-08 16:23 33.56102 5.99194 36886 ft 467 kts 344°
2026-05-08 16:23 33.62520 5.97962 36884 ft 466 kts 344°
2026-05-08 16:24 33.68937 5.96728 36884 ft 466 kts 344°
2026-05-08 16:24 33.75345 5.95494 36888 ft 466 kts 344°
2026-05-08 16:25 33.81720 5.94264 36904 ft 466 kts 344°
2026-05-08 16:25 33.88125 5.93027 36894 ft 465 kts 344°
2026-05-08 16:26 33.94518 5.91795 36888 ft 465 kts 345°
2026-05-08 16:26 34.00910 5.90603 36897 ft 465 kts 345°
2026-05-08 16:27 34.07310 5.89425 36898 ft 465 kts 345°
2026-05-08 16:27 34.13714 5.88243 36888 ft 465 kts 345°
2026-05-08 16:28 34.20065 5.87064 36900 ft 465 kts 345°
2026-05-08 16:28 34.26496 5.85868 36886 ft 465 kts 345°
2026-05-08 16:29 34.32850 5.84684 36891 ft 465 kts 345°
2026-05-08 16:29 34.39252 5.83490 36891 ft 464 kts 345°
2026-05-08 16:30 34.45643 5.82296 36896 ft 464 kts 345°
2026-05-08 16:30 34.52027 5.81101 36899 ft 464 kts 345°
2026-05-08 16:31 34.58369 5.79912 36903 ft 464 kts 345°
2026-05-08 16:31 34.64749 5.78715 36907 ft 463 kts 345°
2026-05-08 16:32 34.71122 5.77517 36911 ft 463 kts 345°
2026-05-08 16:32 34.77520 5.76514 36911 ft 468 kts 352°
2026-05-08 16:33 34.82965 5.76564 36911 ft 472 kts 355°
2026-05-08 16:33 34.89544 5.76881 36913 ft 472 kts 356°
2026-05-08 16:34 34.96115 5.77268 36913 ft 472 kts 356°
2026-05-08 16:34 35.02689 5.77649 36922 ft 472 kts 356°
2026-05-08 16:35 35.09212 5.78011 36923 ft 472 kts 356°
2026-05-08 16:35 35.15788 5.78369 36943 ft 473 kts 355°
2026-05-08 16:36 35.22383 5.78729 36955 ft 473 kts 355°
2026-05-08 16:36 35.28967 5.79089 36955 ft 473 kts 355°
2026-05-08 16:37 35.35546 5.79450 36968 ft 473 kts 355°
2026-05-08 16:37 35.42137 5.79812 36966 ft 474 kts 355°
2026-05-08 16:38 35.48689 5.80172 36974 ft 474 kts 355°
2026-05-08 16:38 35.55294 5.80537 36977 ft 474 kts 355°
2026-05-08 16:39 35.61897 5.80901 36997 ft 474 kts 355°
2026-05-08 16:39 35.68455 5.81264 36973 ft 475 kts 355°
2026-05-08 16:40 35.75071 5.81630 36974 ft 475 kts 355°
2026-05-08 16:40 35.81696 5.81996 36975 ft 475 kts 355°
2026-05-08 16:41 35.88307 5.82365 36973 ft 475 kts 355°
2026-05-08 16:42 35.98204 5.82917 36974 ft 475 kts 355°
2026-05-08 16:42 36.04786 5.83284 36974 ft 475 kts 355°
2026-05-08 16:43 36.11410 5.83655 37011 ft 476 kts 355°
2026-05-08 16:43 36.18015 5.84026 36975 ft 474 kts 355°
2026-05-08 16:44 36.24577 5.84394 36975 ft 474 kts 355°
2026-05-08 16:44 36.31185 5.84765 36970 ft 474 kts 355°
2026-05-08 16:45 36.37790 5.85137 36990 ft 474 kts 354°
2026-05-08 16:45 36.44372 5.85465 36981 ft 472 kts 354°
2026-05-08 16:46 36.50889 5.85785 36971 ft 472 kts 355°
2026-05-08 16:46 36.57460 5.86160 36953 ft 472 kts 355°
2026-05-08 16:47 36.64041 5.86546 36953 ft 472 kts 355°
2026-05-08 16:47 36.70566 5.86927 36944 ft 471 kts 354°
2026-05-08 16:48 36.77127 5.87305 36944 ft 472 kts 355°
2026-05-08 16:48 36.83697 5.87778 36935 ft 473 kts 356°
2026-05-08 16:49 36.90224 5.88403 36944 ft 472 kts 356°
2026-05-08 16:49 36.96767 5.89051 36952 ft 471 kts 356°
2026-05-08 16:50 37.03294 5.89679 36950 ft 471 kts 356°
2026-05-08 16:50 37.09828 5.90298 36991 ft 471 kts 356°
2026-05-08 16:51 37.16345 5.90915 36959 ft 467 kts 355°
2026-05-08 16:51 37.22826 5.91530 36961 ft 466 kts 355°
2026-05-08 16:52 37.29257 5.92138 36954 ft 466 kts 355°
2026-05-08 16:52 37.35735 5.92753 36961 ft 466 kts 355°
2026-05-08 16:53 37.45425 5.93678 36955 ft 465 kts 355°
2026-05-08 16:53 37.51835 5.94290 36955 ft 464 kts 355°
2026-05-08 16:54 37.58280 5.94906 36975 ft 465 kts 355°
2026-05-08 16:54 37.64725 5.95524 36952 ft 464 kts 355°
2026-05-08 16:55 37.71174 5.96143 36953 ft 464 kts 355°
2026-05-08 16:55 37.77618 5.96763 36955 ft 464 kts 355°
2026-05-08 16:56 37.84053 5.97382 36954 ft 464 kts 355°
2026-05-08 16:56 37.90495 5.98004 36952 ft 464 kts 355°
2026-05-08 16:57 37.96904 5.98624 36952 ft 464 kts 355°
2026-05-08 16:57 38.03350 5.99249 36952 ft 464 kts 355°
2026-05-08 16:58 38.09803 5.99875 36950 ft 465 kts 354°
2026-05-08 16:58 38.16221 6.00498 36953 ft 465 kts 354°
2026-05-08 16:59 38.22679 6.01128 36958 ft 465 kts 355°
2026-05-08 16:59 38.29143 6.01759 36958 ft 465 kts 355°
2026-05-08 17:00 38.35595 6.02389 36956 ft 464 kts 354°
2026-05-08 17:00 38.42047 6.03020 36961 ft 465 kts 354°
2026-05-08 17:01 38.48509 6.03654 36948 ft 465 kts 355°
2026-05-08 17:01 38.54936 6.04286 36958 ft 465 kts 354°
2026-05-08 17:02 38.61397 6.04922 36956 ft 465 kts 354°
2026-05-08 17:02 38.67881 6.05562 36957 ft 465 kts 354°
2026-05-08 17:03 38.74302 6.06196 36987 ft 466 kts 355°
2026-05-08 17:03 38.80772 6.06836 36960 ft 466 kts 355°
2026-05-08 17:04 38.87240 6.07478 36956 ft 466 kts 355°
2026-05-08 17:04 38.93700 6.08120 36961 ft 466 kts 355°
2026-05-08 17:05 39.00103 6.08493 36960 ft 456 kts 347°
2026-05-08 17:05 39.06371 6.07672 36964 ft 451 kts 343°
2026-05-08 17:06 39.12602 6.06598 36965 ft 451 kts 343°
2026-05-08 17:06 39.18818 6.05473 36961 ft 451 kts 343°
2026-05-08 17:07 39.25036 6.04359 36967 ft 450 kts 343°
2026-05-08 17:07 39.31202 6.03269 36966 ft 450 kts 343°
2026-05-08 17:08 39.37422 6.02172 36965 ft 450 kts 343°
2026-05-08 17:08 39.43633 6.01073 36985 ft 450 kts 344°
2026-05-08 17:09 39.49793 5.99982 36963 ft 449 kts 343°
2026-05-08 17:09 39.55992 5.98882 36968 ft 449 kts 343°
2026-05-08 17:10 39.62206 5.97777 36969 ft 449 kts 343°
2026-05-08 17:10 39.68401 5.96672 36971 ft 451 kts 344°
2026-05-08 17:11 39.74608 5.95561 36972 ft 453 kts 344°
2026-05-08 17:11 39.80865 5.94443 36972 ft 454 kts 344°
2026-05-08 17:12 39.87138 5.93321 36971 ft 454 kts 344°
2026-05-08 17:12 39.93373 5.92201 36976 ft 455 kts 345°
2026-05-08 17:13 39.99668 5.91069 36972 ft 456 kts 345°
2026-05-08 17:13 40.05970 5.89934 36977 ft 456 kts 345°
2026-05-08 17:14 40.12265 5.88798 36982 ft 457 kts 346°
2026-05-08 17:14 40.18553 5.87660 36980 ft 460 kts 346°
2026-05-08 17:15 40.24894 5.86511 36970 ft 460 kts 346°
2026-05-08 17:15 40.31239 5.85361 36970 ft 460 kts 346°
2026-05-08 17:16 40.37594 5.84204 36977 ft 461 kts 346°
2026-05-08 17:16 40.43935 5.83050 36976 ft 463 kts 346°
2026-05-08 17:17 40.50338 5.81992 36977 ft 463 kts 347°
2026-05-08 17:17 40.56753 5.80998 36976 ft 463 kts 347°
2026-05-08 17:18 40.63158 5.80003 36980 ft 463 kts 347°
2026-05-08 17:18 40.69527 5.79000 36980 ft 463 kts 347°
2026-05-08 17:19 40.75939 5.77982 36980 ft 463 kts 347°
2026-05-08 17:19 40.82357 5.76959 36983 ft 466 kts 347°
2026-05-08 17:20 40.88770 5.75936 36982 ft 467 kts 347°
2026-05-08 17:20 40.94146 5.75079 36982 ft 467 kts 347°
2026-05-08 17:21 41.00597 5.74049 36991 ft 467 kts 348°
2026-05-08 17:21 41.08110 5.72845 36987 ft 468 kts 348°
2026-05-08 17:22 41.13533 5.71975 36990 ft 468 kts 348°
2026-05-08 17:22 41.19963 5.70941 36994 ft 468 kts 347°
2026-05-08 17:23 41.26429 5.69901 36990 ft 467 kts 348°
2026-05-08 17:23 41.32902 5.68855 36990 ft 468 kts 348°
2026-05-08 17:24 41.39374 5.67807 36993 ft 468 kts 348°
2026-05-08 17:24 41.45818 5.66762 36995 ft 469 kts 348°
2026-05-08 17:25 41.52315 5.65705 36992 ft 471 kts 348°
2026-05-08 17:25 41.58831 5.64645 36993 ft 471 kts 348°
2026-05-08 17:26 41.65340 5.63584 36998 ft 471 kts 348°
2026-05-08 17:26 41.71874 5.62515 36989 ft 474 kts 348°
2026-05-08 17:27 41.78389 5.61442 36999 ft 474 kts 348°
2026-05-08 17:27 41.84930 5.60235 36996 ft 473 kts 347°
2026-05-08 17:28 41.91455 5.58967 36999 ft 474 kts 347°
2026-05-08 17:28 41.97988 5.57699 36992 ft 474 kts 347°
2026-05-08 17:29 42.04532 5.56439 36996 ft 474 kts 347°
2026-05-08 17:29 42.11028 5.55190 36997 ft 475 kts 347°
2026-05-08 17:30 42.17585 5.53927 36997 ft 475 kts 347°
2026-05-08 17:30 42.24154 5.52660 36999 ft 475 kts 347°
2026-05-08 17:31 42.30706 5.51392 36998 ft 476 kts 347°
2026-05-08 17:31 42.37277 5.50118 36999 ft 477 kts 347°
2026-05-08 17:32 42.43818 5.48847 36998 ft 477 kts 347°
2026-05-08 17:32 42.50395 5.47567 37007 ft 477 kts 347°
2026-05-08 17:33 42.56973 5.46283 37004 ft 478 kts 347°
2026-05-08 17:33 42.63571 5.44993 37004 ft 479 kts 347°
2026-05-08 17:34 42.70139 5.43706 37004 ft 478 kts 347°
2026-05-08 17:34 42.76730 5.42413 37003 ft 477 kts 347°
2026-05-08 17:35 42.83283 5.41125 37004 ft 475 kts 347°
2026-05-08 17:35 42.89830 5.39834 37022 ft 475 kts 347°
2026-05-08 17:36 42.96382 5.38538 37004 ft 476 kts 347°
2026-05-08 17:36 43.02906 5.37245 37004 ft 476 kts 347°
2026-05-08 17:37 43.09467 5.35943 36999 ft 476 kts 347°
2026-05-08 17:37 43.16031 5.34638 36994 ft 477 kts 347°
2026-05-08 17:38 43.22616 5.33320 36991 ft 477 kts 346°
2026-05-08 17:38 43.29087 5.31623 36993 ft 474 kts 343°
2026-05-08 17:39 43.35539 5.29649 36996 ft 475 kts 342°
2026-05-08 17:39 43.42001 5.27666 36994 ft 475 kts 343°
2026-05-08 17:40 43.48432 5.25733 36997 ft 476 kts 343°
2026-05-08 17:40 43.54913 5.23805 36994 ft 476 kts 343°
2026-05-08 17:41 43.61390 5.21877 36990 ft 476 kts 343°
2026-05-08 17:41 43.67872 5.19942 36995 ft 476 kts 343°
2026-05-08 17:42 43.74312 5.18013 36985 ft 476 kts 343°
2026-05-08 17:42 43.80809 5.16063 37004 ft 477 kts 343°
2026-05-08 17:43 43.87300 5.14107 37008 ft 477 kts 343°
2026-05-08 17:43 43.93791 5.12151 37018 ft 477 kts 343°
2026-05-08 17:44 44.00291 5.10189 37019 ft 477 kts 343°
2026-05-08 17:44 44.06746 5.08235 37003 ft 477 kts 343°
2026-05-08 17:45 44.13251 5.06260 37005 ft 477 kts 343°
2026-05-08 17:45 44.19751 5.04281 37000 ft 478 kts 343°
2026-05-08 17:46 44.26217 5.02309 36998 ft 478 kts 343°
2026-05-08 17:46 44.32715 5.00324 37023 ft 478 kts 343°
2026-05-08 17:47 44.39228 4.98330 37018 ft 478 kts 343°
2026-05-08 17:47 44.44630 4.96672 37020 ft 478 kts 343°
2026-05-08 17:48 44.52193 4.94345 37029 ft 478 kts 343°
2026-05-08 17:48 44.58685 4.92343 37019 ft 477 kts 343°
2026-05-08 17:49 44.65173 4.90338 37022 ft 477 kts 343°
2026-05-08 17:49 44.71657 4.88330 37019 ft 477 kts 343°
2026-05-08 17:50 44.78149 4.86314 37022 ft 477 kts 343°
2026-05-08 17:50 44.84635 4.84295 37023 ft 477 kts 343°
2026-05-08 17:51 44.91118 4.82272 37030 ft 477 kts 343°
2026-05-08 17:51 44.97558 4.80258 37023 ft 476 kts 343°
2026-05-08 17:52 45.04037 4.78227 37024 ft 476 kts 343°
2026-05-08 17:53 45.13751 4.75174 37025 ft 476 kts 343°
2026-05-08 17:53 45.20217 4.73136 37023 ft 476 kts 343°
2026-05-08 17:54 45.26645 4.71106 37028 ft 476 kts 343°
2026-05-08 17:54 45.33112 4.69058 37022 ft 475 kts 343°
2026-05-08 17:55 45.39569 4.67010 37028 ft 474 kts 343°
2026-05-08 17:55 45.46012 4.64958 37018 ft 474 kts 343°
2026-05-08 17:56 45.52465 4.62900 37021 ft 474 kts 343°
2026-05-08 17:56 45.58852 4.60859 37023 ft 473 kts 343°
2026-05-08 17:57 45.65295 4.58794 37020 ft 473 kts 343°
2026-05-08 17:57 45.71732 4.56727 37022 ft 473 kts 343°
2026-05-08 17:58 45.78171 4.54654 37019 ft 473 kts 343°
2026-05-08 17:58 45.84556 4.52593 37020 ft 473 kts 343°
2026-05-08 17:59 45.90981 4.50514 37022 ft 473 kts 343°
2026-05-08 17:59 45.97416 4.48428 37020 ft 473 kts 343°
2026-05-08 18:00 46.02755 4.46693 37020 ft 473 kts 343°
2026-05-08 18:00 46.13481 4.43197 37024 ft 473 kts 344°
2026-05-08 18:01 46.19872 4.41107 37023 ft 473 kts 343°
2026-05-08 18:01 46.26302 4.39001 37028 ft 473 kts 343°
2026-05-08 18:02 46.31687 4.37472 37018 ft 475 kts 347°
2026-05-08 18:02 46.39358 4.35903 37024 ft 476 kts 349°
2026-05-08 18:03 46.45937 4.34625 37023 ft 476 kts 349°
2026-05-08 18:03 46.52468 4.33299 37023 ft 476 kts 348°
2026-05-08 18:04 46.59026 4.31927 37020 ft 476 kts 348°
2026-05-08 18:04 46.65595 4.30542 37021 ft 476 kts 348°
2026-05-08 18:05 46.71056 4.29389 37021 ft 476 kts 348°
2026-05-08 18:05 46.78685 4.27776 37024 ft 476 kts 348°
2026-05-08 18:06 46.84188 4.26611 37023 ft 476 kts 348°
2026-05-08 18:06 46.90711 4.25226 37035 ft 476 kts 348°
2026-05-08 18:07 46.97280 4.23828 37020 ft 476 kts 348°
2026-05-08 18:07 47.03853 4.22426 37024 ft 476 kts 348°
2026-05-08 18:08 47.10415 4.21023 37031 ft 476 kts 348°
2026-05-08 18:08 47.16971 4.19618 37029 ft 476 kts 348°
2026-05-08 18:09 47.23482 4.18219 37032 ft 476 kts 348°
2026-05-08 18:09 47.30038 4.16806 37032 ft 476 kts 348°
2026-05-08 18:10 47.36593 4.15390 37038 ft 475 kts 348°
2026-05-08 18:10 47.43082 4.13985 37030 ft 475 kts 348°
2026-05-08 18:11 47.49615 4.12567 37050 ft 475 kts 348°
2026-05-08 18:11 47.52900 4.11852 37178 ft 477 kts 348°
2026-05-08 18:11 47.56189 4.11179 37330 ft 478 kts 349°
2026-05-08 18:12 47.59447 4.10592 37525 ft 478 kts 350°
2026-05-08 18:12 47.62755 4.10039 37737 ft 477 kts 350°
2026-05-08 18:12 47.66025 4.09507 37931 ft 477 kts 350°
2026-05-08 18:12 47.69325 4.08970 38036 ft 477 kts 350°
2026-05-08 18:13 47.75919 4.07878 38036 ft 475 kts 350°
2026-05-08 18:13 47.82485 4.06767 38039 ft 475 kts 350°
2026-05-08 18:14 47.89008 4.05653 38036 ft 475 kts 350°
2026-05-08 18:14 47.95574 4.04527 38042 ft 475 kts 350°
2026-05-08 18:15 48.02151 4.03399 38049 ft 474 kts 350°
2026-05-08 18:15 48.08633 4.02284 38041 ft 474 kts 350°
2026-05-08 18:16 48.15159 4.01159 38040 ft 474 kts 350°
2026-05-08 18:16 48.21708 4.00027 38026 ft 474 kts 350°
2026-05-08 18:17 48.28263 3.98891 38041 ft 474 kts 350°
2026-05-08 18:17 48.34821 3.97752 38040 ft 474 kts 350°
2026-05-08 18:18 48.41339 3.96616 38036 ft 474 kts 350°
2026-05-08 18:18 48.47898 3.95471 38038 ft 474 kts 350°
2026-05-08 18:19 48.54465 3.94321 38042 ft 474 kts 350°
2026-05-08 18:19 48.60985 3.93176 38046 ft 474 kts 350°
2026-05-08 18:20 48.67556 3.92020 38046 ft 474 kts 350°
2026-05-08 18:20 48.74119 3.90862 38045 ft 475 kts 350°
2026-05-08 18:21 48.80683 3.89700 38046 ft 474 kts 350°
2026-05-08 18:21 48.87244 3.88536 38045 ft 474 kts 350°
2026-05-08 18:22 48.93807 3.87363 38045 ft 474 kts 349°
2026-05-08 18:22 49.00328 3.86182 38042 ft 475 kts 350°
2026-05-08 18:23 49.06894 3.85010 38045 ft 475 kts 350°
2026-05-08 18:23 49.13461 3.83839 38045 ft 475 kts 350°
2026-05-08 18:24 49.20036 3.82659 38046 ft 475 kts 350°
2026-05-08 18:24 49.26554 3.81484 38049 ft 475 kts 350°
2026-05-08 18:25 49.33127 3.80295 38048 ft 475 kts 350°
2026-05-08 18:25 49.39687 3.79107 38049 ft 475 kts 350°
2026-05-08 18:26 49.46264 3.77911 38051 ft 475 kts 350°
2026-05-08 18:26 49.52857 3.76956 38049 ft 476 kts 352°
2026-05-08 18:27 49.58352 3.76342 38050 ft 476 kts 353°
2026-05-08 18:27 49.66038 3.75500 38058 ft 476 kts 352°
2026-05-08 18:28 49.72646 3.74740 38052 ft 476 kts 352°
2026-05-08 18:28 49.79255 3.73961 38058 ft 476 kts 352°
2026-05-08 18:29 49.85867 3.73176 38058 ft 476 kts 352°
2026-05-08 18:29 49.92432 3.72396 38063 ft 476 kts 352°
2026-05-08 18:30 49.99046 3.71609 38061 ft 476 kts 352°
2026-05-08 18:30 50.05664 3.70861 38064 ft 476 kts 353°
2026-05-08 18:31 50.12213 3.70131 38061 ft 476 kts 353°
2026-05-08 18:31 50.18784 3.69363 38062 ft 476 kts 353°
2026-05-08 18:32 50.25395 3.68570 38064 ft 475 kts 353°
2026-05-08 18:32 50.32001 3.67771 38065 ft 475 kts 353°
2026-05-08 18:33 50.35293 3.67401 37742 ft 474 kts 354°
2026-05-08 18:33 50.38597 3.67122 36986 ft 478 kts 355°
2026-05-08 18:33 50.41863 3.66905 36367 ft 479 kts 355°
2026-05-08 18:33 50.45090 3.66714 35755 ft 479 kts 355°
2026-05-08 18:34 50.48422 3.66520 35081 ft 482 kts 355°
2026-05-08 18:34 50.51768 3.66321 34371 ft 484 kts 355°
2026-05-08 18:34 50.55150 3.66110 33574 ft 487 kts 355°
2026-05-08 18:34 50.58538 3.65892 32798 ft 488 kts 355°
2026-05-08 18:35 50.61923 3.65670 32043 ft 488 kts 355°
2026-05-08 18:35 50.65338 3.65442 31252 ft 489 kts 355°
2026-05-08 18:35 50.68745 3.65214 30524 ft 489 kts 355°
2026-05-08 18:35 50.72131 3.64988 29969 ft 485 kts 355°
2026-05-08 18:36 50.75449 3.64767 29371 ft 480 kts 355°
2026-05-08 18:36 50.78726 3.64549 28815 ft 474 kts 355°
2026-05-08 18:36 50.81998 3.64323 28280 ft 469 kts 355°
2026-05-08 18:36 50.85249 3.64103 27726 ft 464 kts 355°
2026-05-08 18:37 50.88457 3.63890 27182 ft 459 kts 355°
2026-05-08 18:37 50.91642 3.63741 26643 ft 456 kts 358°
2026-05-08 18:37 50.94772 3.63872 26110 ft 452 kts
2026-05-08 18:37 50.97913 3.64081 25573 ft 449 kts
2026-05-08 18:38 51.01023 3.64295 25040 ft 445 kts
2026-05-08 18:38 51.04105 3.64502 24485 ft 442 kts
2026-05-08 18:38 51.07105 3.64700 23971 ft 439 kts
2026-05-08 18:38 51.10165 3.64899 23385 ft 437 kts
2026-05-08 18:39 51.13084 3.65087 22830 ft 433 kts
2026-05-08 18:39 51.16068 3.65279 22295 ft 428 kts
2026-05-08 18:39 51.19030 3.65470 21783 ft 423 kts
2026-05-08 18:39 51.21953 3.65658 21251 ft 419 kts
2026-05-08 18:40 51.24856 3.65740 20733 ft 414 kts 358°
2026-05-08 18:40 51.27706 3.65671 20228 ft 409 kts 357°
2026-05-08 18:40 51.30554 3.65676 19537 ft 410 kts
2026-05-08 18:40 51.33385 3.66453 18597 ft 421 kts 15°
2026-05-08 18:41 51.36117 3.68194 17810 ft 423 kts 23°
2026-05-08 18:41 51.38751 3.70216 17197 ft 418 kts 25°
2026-05-08 18:41 51.41251 3.72211 16628 ft 413 kts 25°
2026-05-08 18:41 51.43802 3.74269 16093 ft 408 kts 26°
2026-05-08 18:42 51.46321 3.76309 15561 ft 402 kts 26°
2026-05-08 18:42 51.48771 3.78300 15040 ft 397 kts 26°
2026-05-08 18:42 51.51222 3.80294 14520 ft 392 kts 26°
2026-05-08 18:42 51.53631 3.82256 13998 ft 388 kts 26°
2026-05-08 18:43 51.56031 3.84215 13440 ft 384 kts 26°
2026-05-08 18:43 51.58393 3.86144 12918 ft 378 kts 26°
2026-05-08 18:43 51.60728 3.88055 12411 ft 373 kts 26°
2026-05-08 18:43 51.63027 3.89937 11908 ft 368 kts 26°
2026-05-08 18:44 51.65262 3.91770 11421 ft 363 kts 27°
2026-05-08 18:44 51.67502 3.93609 10909 ft 359 kts 27°
2026-05-08 18:44 51.69698 3.95413 10705 ft 347 kts 27°
2026-05-08 18:44 51.71786 3.97131 10613 ft 325 kts 27°
2026-05-08 18:45 51.73738 3.98739 10487 ft 305 kts 27°
2026-05-08 18:45 51.75592 4.00267 10362 ft 295 kts 27°
2026-05-08 18:45 51.77399 4.01758 10212 ft 287 kts 27°
2026-05-08 18:45 51.79156 4.03209 10106 ft 281 kts 27°
2026-05-08 18:46 51.80941 4.04686 9847 ft 294 kts 27°
2026-05-08 18:46 51.82741 4.06176 9450 ft 296 kts 27°
2026-05-08 18:46 51.84551 4.07674 9108 ft 292 kts 27°
2026-05-08 18:46 51.86359 4.09173 8772 ft 290 kts 27°
2026-05-08 18:47 51.88149 4.10658 8456 ft 288 kts 27°
2026-05-08 18:47 51.89929 4.12135 8126 ft 286 kts 27°
2026-05-08 18:47 51.91648 4.13750 7782 ft 284 kts 33°
2026-05-08 18:47 51.93250 4.15608 7472 ft 282 kts 37°
2026-05-08 18:48 51.94775 4.17583 7135 ft 279 kts 39°
2026-05-08 18:48 51.96224 4.19554 6805 ft 277 kts 40°
2026-05-08 18:48 51.97190 4.20884 6587 ft 276 kts 40°
2026-05-08 18:48 51.98653 4.22895 6238 ft 274 kts 40°
2026-05-08 18:49 52.00075 4.24831 5913 ft 272 kts 40°
2026-05-08 18:49 52.01995 4.27414 5487 ft 270 kts 40°
2026-05-08 18:49 52.02979 4.28727 5165 ft 271 kts 39°
2026-05-08 18:49 52.04435 4.30664 4815 ft 269 kts 39°
2026-05-08 18:50 52.05856 4.32549 4600 ft 263 kts 39°
2026-05-08 18:50 52.07250 4.34398 4451 ft 252 kts 39°
2026-05-08 18:50 52.08574 4.36156 4268 ft 239 kts 39°
2026-05-08 18:50 52.09845 4.37845 3972 ft 234 kts 39°
2026-05-08 18:51 52.11101 4.39517 3716 ft 232 kts 40°
2026-05-08 18:51 52.12342 4.41171 3501 ft 229 kts 40°
2026-05-08 18:51 52.13558 4.42793 3357 ft 223 kts 39°
2026-05-08 18:51 52.14746 4.44379 3168 ft 220 kts 40°
2026-05-08 18:52 52.15887 4.45904 2921 ft 218 kts 40°
2026-05-08 18:52 52.17061 4.47473 2680 ft 217 kts 40°
2026-05-08 18:52 52.18205 4.49004 2548 ft 211 kts 40°
2026-05-08 18:52 52.19333 4.50514 2366 ft 208 kts 40°
2026-05-08 18:53 52.20388 4.52118 2173 ft 206 kts 49°
2026-05-08 18:53 52.21245 4.53951 2181 ft 198 kts 58°
2026-05-08 18:53 52.21963 4.55768 2151 ft 186 kts 58°
2026-05-08 18:53 52.22657 4.57546 2153 ft 184 kts 60°
2026-05-08 18:54 52.23340 4.59309 2098 ft 182 kts 59°
2026-05-08 18:54 52.24004 4.60993 1872 ft 171 kts 60°
2026-05-08 18:54 52.24625 4.62597 1616 ft 164 kts 60°
2026-05-08 18:54 52.25223 4.64154 1401 ft 160 kts 60°
2026-05-08 18:55 52.26337 4.67032 974 ft 140 kts 60°
2026-05-08 18:55 52.26858 4.68371 777 ft 139 kts 60°
2026-05-08 18:55 52.27369 4.69701 598 ft 138 kts 60°
2026-05-08 18:56 52.27880 4.71027 408 ft 138 kts 62°
2026-05-08 18:56 52.28383 4.72346 232 ft 136 kts 60°
2026-05-08 18:56 52.28879 4.73649 42 ft 135 kts 59°
2026-05-08 18:56 52.29345 4.74862 2 ft 108 kts 57°
2026-05-08 18:57 52.29640 4.75620 3 ft 50 kts 57°
2026-05-08 18:57 52.29818 4.76087 0 ft 47 kts 58°
2026-05-08 18:57 52.29989 4.76485 2 ft 36 kts 39°
2026-05-08 18:57 52.30138 4.76633 3 ft 9 kts 28°
2026-05-08 18:58 52.30192 4.76682 3 ft 9 kts 29°
2026-05-08 18:58 52.30228 4.76715 3 ft 6 kts 29°
2026-05-08 18:58 52.30268 4.76745 3 ft 7 kts 28°
2026-05-08 18:58 52.30303 4.76805 3 ft 9 kts 53°
2026-05-08 18:59 52.30357 4.76934 3 ft 18 kts 57°
2026-05-08 18:59 52.30432 4.77132 3 ft 22 kts 57°
2026-05-08 18:59 52.30520 4.77360 3 ft 24 kts 59°
2026-05-08 18:59 52.30595 4.77543 3 ft 20 kts 42°
2026-05-08 19:00 52.30738 4.77593 3 ft 23 kts
2026-05-08 19:00 52.30895 4.77609 3 ft 24 kts
2026-05-08 19:00 52.31017 4.77575 3 ft 16 kts 308°
2026-05-08 19:00 52.31069 4.77384 3 ft 21 kts 275°
2026-05-08 19:01 52.31078 4.77130 3 ft 22 kts 274°
2026-05-08 19:01 52.31084 4.76913 3 ft 16 kts 261°
2026-05-08 19:01 52.31014 4.76787 3 ft 12 kts 228°
2026-05-08 19:01 52.30979 4.76668 3 ft 9 kts 231°
2026-05-08 19:02 52.30963 4.76642 3 ft 3 kts 223°
2026-05-08 19:02 52.30946 4.76633 3 ft 3 kts 194°
2026-05-08 19:02 52.30926 4.76631 3 ft 1 kts 182°
2026-05-08 19:02 52.30921 4.76631 3 ft 1 kts 182°
2026-05-08 19:03 52.30920 4.76631 3 ft 0 kts 182°